Location: Brahman Valley
(40.6513°N, 111.8855°W)
Time: 13:40:36
(UTC+00:00)

Vanguard 2 - Pass Details

Date: 15 May 2021
Orbit: 552 x 2937 km, 32.9° (Epoch: 14 June)

Event Time Altitude Azimuth Distance (km) Brightness Sun altitude
Rises 12:32:35 0° 238° (WSW) 4,095 10.6 3.0°
Reaches altitude 10° 12:35:02 10° 232° (SW) 3,389 10.2 3.4°
Maximum altitude 12:43:40 50° 160° (SSE) 2,279 10.0 5.0°
Drops below altitude 10° 12:57:30 10° 91° (E) 5,295 13.5 7.4°
Sets 13:02:23 0° 88° (E) 6,546 14.1 8.3°
